Regional Weather Roundup
Issued by NWS

Home | Current Version | Previous Version | Graphics & Text | Print | Product List | Glossary On
Versions: 1 2 3 4 5 6 7 8 9 10 11 12 13 14 15 16 17 18 19 20 21 22 23 24 25 26 27 28 29 30 31 32 33 34 35 36 37 38 39 40 41 42 43 44 45 46 47 48 49 50
165
ASUS43 KLSX 260207
RWRMO

WEATHER SUMMARY FOR MISSOURI
NATIONAL WEATHER SERVICE SPRINGFIELD MO
900 PM CDT MON JUL 25 2016

NOTE: "FAIR" INDICATES FEW OR NO CLOUDS BELOW 12,000 FEET WITH NO
       SIGNIFICANT WEATHER AND/OR OBSTRUCTIONS TO VISIBILITY.
       CURRENT SKY AND/OR WEATHER CONDITIONS ARE NOT AVAILABLE FOR
       CHILLICOTHE AND FARMINGTON.

MOZ001>031-035>038-043-044-053-054-260300-
...NORTHERN AND WESTERN MISSOURI...

CITY           SKY/WX    TMP DP  RH WIND       PRES   REMARKS
KANSAS CTY INT CLOUDY    80  65  59 E6        30.05R
KANSAS C DTWN  CLOUDY    81  64  56 NE7       30.03R
LEE`S SUMMIT   CLOUDY    80  68  66 E3        30.05R
ST JOSEPH      CLOUDY    79  66  64 CALM      30.04S
CHILLICOTHE      N/A     78  72  81 CALM      30.05R
KIRKSVILLE     PTCLDY    75  68  78 N3        30.06R

$$
MOZ066>068-077>081-088>096-101>105-260300-
...SOUTHWEST MISSOURI...

CITY           SKY/WX    TMP DP  RH WIND       PRES   REMARKS
SPRINGFIELD    CLEAR     78  72  81 E6        30.03S
JOPLIN         MOCLDY    78  74  87 NE6       30.03R
BRANSON        MOCLDY    77  72  83 CALM      30.03S

$$
MOZ032>034-039>042-045>050-055>058-069>072-260300-
...CENTRAL MISSOURI...

CITY           SKY/WX    TMP DP  RH WIND       PRES   REMARKS
COLUMBIA       CLEAR     75  72  90 N5        30.04R
JEFFERSON CITY CLEAR     78  70  76 N5        30.01S
ROLLA          PTCLDY    76  71  85 N6        30.02S
SEDALIA        PTCLDY    78  72  81 CALM      30.05R
OSAGE BEACH    MOCLDY    74  73  97 N5        30.04R

$$
MOZ051-052-059>065-260300-
...EAST CENTRAL MISSOURI...

CITY           SKY/WX    TMP DP  RH WIND       PRES   REMARKS
ST LOUIS INTL  MOCLDY    82  73  74 NE5       30.00R
SPIRIT OF STL  CLOUDY    81  74  79 N3        29.99R
ST CHARLES     PTCLDY    78  75  90 N3        29.99R

$$
MOZ072>076-082>087-097>100-106>115-260300-
...SOUTH CENTRAL AND SOUTHEAST MISSOURI...

CITY           SKY/WX    TMP DP  RH WIND       PRES   REMARKS
CAPE GIRARDEAU PTCLDY    78  76  93 SW5       29.97R
FARMINGTON     CLOUDY    81  75  82 E3        30.02R
POPLAR BLUFF   PTCLDY    79  75  87 CALM      29.98R
WEST PLAINS    CLOUDY    78  71  79 CALM      30.04R

$$



USA.gov is the U.S. government's official web portal to all federal, state and local government web resources and services.